contact:dominique.lefevre@mio.osupytheas.fr, maurice.libes@osupytheas.fr, didier.mallarino@osupytheas.fr
Project:EMSO http://www.emso-fr.org/EMSO-France
Depth: 2436.0 m
Title:EMSO Ligure Ouest : Data MII capteur CSTAR
DateTime,Latitude,Longitude,Instrument_Serial,Reference_Counts,Signal_Counts,Corrected_Signal_raw_counts,Calculated_Beam_c_inverse_meters,Internal_thermistor_counts
DateTime,Latitude,Longitude,Instrument_Serial,Reference_Counts,Signal_Counts,Corrected_Signal_raw_counts,Calculated_Beam_c_inverse_meters,Internal_thermistor_counts
2023-11-10T00:00:30,42.805,6.029,CST-1368DR,4113,4382,11290,01.298,553
2023-11-10T00:03:31,42.805,6.029,CST-1368DR,4113,4380,11284,01.300,553
2023-11-10T00:06:33,42.805,6.029,CST-1368DR,4113,4380,11286,01.299,553
2023-11-10T00:09:35,42.805,6.029,CST-1368DR,4113,4383,11292,01.297,553
2023-11-10T00:12:36,42.805,6.029,CST-1368DR,4113,4382,11290,01.298,553
2023-11-10T00:15:38,42.805,6.029,CST-1368DR,4113,4380,11284,01.300,553
2023-11-10T00:18:39,42.805,6.029,CST-1368DR,4113,4378,11281,01.301,553
2023-11-10T00:21:41,42.805,6.029,CST-1368DR,4113,4380,11286,01.299,553
2023-11-10T00:24:42,42.805,6.029,CST-1368DR,4113,4377,11278,01.302,553
2023-11-10T00:27:44,42.805,6.029,CST-1368DR,4113,4379,11283,01.300,553
2023-11-10T00:30:46,42.805,6.029,CST-1368DR,4113,4380,11286,01.299,553
2023-11-10T00:33:47,42.805,6.029,CST-1368DR,4113,4381,11289,01.298,553
2023-11-10T00:36:49,42.805,6.029,CST-1368DR,4113,4384,11297,01.295,553
2023-11-10T00:39:50,42.805,6.029,CST-1368DR,4113,4381,11289,01.298,553
2023-11-10T00:42:52,42.805,6.029,CST-1368DR,4113,4378,11279,01.301,552
2023-11-10T00:45:53,42.805,6.029,CST-1368DR,4113,4380,11285,01.299,553
2023-11-10T00:48:55,42.805,6.029,CST-1368DR,4113,4382,11290,01.298,553
2023-11-10T00:51:57,42.805,6.029,CST-1368DR,4113,4379,11282,01.300,553
2023-11-10T00:54:58,42.805,6.029,CST-1368DR,4113,4379,11283,01.300,553
2023-11-10T00:58:00,42.805,6.029,CST-1368DR,4113,4380,11286,01.299,553
2023-11-10T01:01:01,42.805,6.029,CST-1368DR,4113,4376,11275,01.303,553
2023-11-10T01:04:03,42.805,6.029,CST-1368DR,4113,4378,11279,01.301,553
2023-11-10T01:07:05,42.805,6.029,CST-1368DR,4113,4378,11280,01.301,553
2023-11-10T01:10:06,42.805,6.029,CST-1368DR,4113,4376,11276,01.302,553
2023-11-10T01:13:08,42.805,6.029,CST-1368DR,4113,4379,11283,01.300,553
2023-11-10T01:16:09,42.805,6.029,CST-1368DR,4113,4381,11287,01.299,553
2023-11-10T01:19:11,42.805,6.029,CST-1368DR,4113,4379,11284,01.300,553
2023-11-10T01:22:12,42.805,6.029,CST-1368DR,4113,4380,11286,01.299,553
2023-11-10T01:25:14,42.805,6.029,CST-1368DR,4113,4382,11291,01.297,552
2023-11-10T01:28:16,42.805,6.029,CST-1368DR,4113,4382,11290,01.298,553
2023-11-10T01:31:17,42.805,6.029,CST-1368DR,4113,4381,11288,01.298,553
2023-11-10T01:34:19,42.805,6.029,CST-1368DR,4113,4381,11288,01.298,553
2023-11-10T01:37:20,42.805,6.029,CST-1368DR,4113,4378,11281,01.301,553
2023-11-10T01:40:22,42.805,6.029,CST-1368DR,4113,4377,11278,01.302,553
2023-11-10T01:43:24,42.805,6.029,CST-1368DR,4113,4379,11283,01.300,553
2023-11-10T01:46:25,42.805,6.029,CST-1368DR,4113,4377,11279,01.301,553
2023-11-10T01:49:27,42.805,6.029,CST-1368DR,4113,4379,11283,01.300,553
2023-11-10T01:52:28,42.805,6.029,CST-1368DR,4113,4378,11281,01.301,553
2023-11-10T01:55:30,42.805,6.029,CST-1368DR,4113,4381,11289,01.298,553
2023-11-10T01:58:31,42.805,6.029,CST-1368DR,4113,4380,11285,01.299,553
2023-11-10T02:01:33,42.805,6.029,CST-1368DR,4113,4381,11287,01.299,552
2023-11-10T02:04:35,42.805,6.029,CST-1368DR,4113,4378,11281,01.301,553
2023-11-10T02:07:36,42.805,6.029,CST-1368DR,4113,4378,11279,01.301,553
2023-11-10T02:10:38,42.805,6.029,CST-1368DR,4113,4376,11275,01.303,553
2023-11-10T02:13:39,42.805,6.029,CST-1368DR,4113,4380,11285,01.299,553
2023-11-10T02:16:41,42.805,6.029,CST-1368DR,4113,4380,11284,01.300,553
2023-11-10T02:19:42,42.805,6.029,CST-1368DR,4113,4381,11287,01.299,553
2023-11-10T02:22:44,42.805,6.029,CST-1368DR,4113,4378,11281,01.301,553
2023-11-10T02:25:46,42.805,6.029,CST-1368DR,4113,4381,11288,01.298,553
2023-11-10T02:28:47,42.805,6.029,CST-1368DR,4113,4379,11284,01.300,553
2023-11-10T02:31:49,42.805,6.029,CST-1368DR,4113,4382,11291,01.297,553
2023-11-10T02:34:50,42.805,6.029,CST-1368DR,4113,4381,11289,01.298,553
2023-11-10T02:37:52,42.805,6.029,CST-1368DR,4113,4382,11290,01.298,553
2023-11-10T02:40:53,42.805,6.029,CST-1368DR,4113,4381,11289,01.298,553
2023-11-10T02:43:55,42.805,6.029,CST-1368DR,4113,4380,11286,01.299,553
2023-11-10T02:46:57,42.805,6.029,CST-1368DR,4113,4382,11291,01.297,553
2023-11-10T02:49:58,42.805,6.029,CST-1368DR,4113,4379,11284,01.300,553
2023-11-10T02:53:00,42.805,6.029,CST-1368DR,4113,4380,11286,01.299,553
2023-11-10T02:56:01,42.805,6.029,CST-1368DR,4113,4377,11278,01.302,553
2023-11-10T02:59:03,42.805,6.029,CST-1368DR,4113,4379,11284,01.300,553
2023-11-10T03:02:05,42.805,6.029,CST-1368DR,4113,4380,11284,01.300,552
2023-11-10T03:05:06,42.805,6.029,CST-1368DR,4113,4380,11284,01.300,553
2023-11-10T03:08:08,42.805,6.029,CST-1368DR,4113,4380,11284,01.300,553
2023-11-10T03:11:09,42.805,6.029,CST-1368DR,4113,4380,11285,01.299,553
2023-11-10T03:14:11,42.805,6.029,CST-1368DR,4113,4380,11284,01.300,553
2023-11-10T03:17:12,42.805,6.029,CST-1368DR,4113,4379,11283,01.300,553
2023-11-10T03:20:14,42.805,6.029,CST-1368DR,4113,4380,11285,01.299,553
2023-11-10T03:23:16,42.805,6.029,CST-1368DR,4113,4378,11281,01.301,553
2023-11-10T03:26:17,42.805,6.029,CST-1368DR,4113,4382,11290,01.298,553
2023-11-10T03:29:19,42.805,6.029,CST-1368DR,4113,4379,11283,01.300,553
2023-11-10T03:32:20,42.805,6.029,CST-1368DR,4113,4379,11283,01.300,553
2023-11-10T03:35:22,42.805,6.029,CST-1368DR,4113,4378,11281,01.301,553
2023-11-10T03:38:23,42.805,6.029,CST-1368DR,4113,4376,11275,01.303,553
2023-11-10T03:41:25,42.805,6.029,CST-1368DR,4113,4377,11279,01.301,553
2023-11-10T03:44:27,42.805,6.029,CST-1368DR,4113,4381,11287,01.299,553
2023-11-10T03:47:28,42.805,6.029,CST-1368DR,4113,4378,11281,01.301,552
2023-11-10T03:50:30,42.805,6.029,CST-1368DR,4113,4362,11239,01.316,553
2023-11-10T03:53:31,42.805,6.029,CST-1368DR,4113,4381,11287,01.299,553
2023-11-10T03:56:33,42.805,6.029,CST-1368DR,4113,4379,11282,01.300,553
2023-11-10T03:59:35,42.805,6.029,CST-1368DR,4113,4378,11281,01.301,553
2023-11-10T04:02:36,42.805,6.029,CST-1368DR,4113,4380,11285,01.299,553
2023-11-10T04:05:38,42.805,6.029,CST-1368DR,4113,4379,11283,01.300,553
2023-11-10T04:08:39,42.805,6.029,CST-1368DR,4113,4379,11283,01.300,552
2023-11-10T04:11:41,42.805,6.029,CST-1368DR,4113,4379,11283,01.300,553
2023-11-10T04:14:42,42.805,6.029,CST-1368DR,4113,4378,11281,01.301,553
2023-11-10T04:17:44,42.805,6.029,CST-1368DR,4113,4379,11283,01.300,553
2023-11-10T04:20:46,42.805,6.029,CST-1368DR,4113,4378,11281,01.301,553
2023-11-10T04:23:47,42.805,6.029,CST-1368DR,4113,4379,11283,01.300,553
2023-11-10T04:26:49,42.805,6.029,CST-1368DR,4113,4378,11281,01.301,553
2023-11-10T04:29:50,42.805,6.029,CST-1368DR,4113,4376,11275,01.303,553
2023-11-10T04:32:52,42.805,6.029,CST-1368DR,4113,4381,11288,01.298,553
2023-11-10T04:35:54,42.805,6.029,CST-1368DR,4113,4379,11283,01.300,553
2023-11-10T04:38:55,42.805,6.029,CST-1368DR,4113,4380,11285,01.299,553
2023-11-10T04:41:57,42.805,6.029,CST-1368DR,4113,4380,11284,01.300,553
2023-11-10T04:44:58,42.805,6.029,CST-1368DR,4113,4380,11286,01.299,553
2023-11-10T04:48:00,42.805,6.029,CST-1368DR,4113,4381,11287,01.299,553
2023-11-10T04:51:01,42.805,6.029,CST-1368DR,4113,4380,11285,01.299,553
2023-11-10T04:54:03,42.805,6.029,CST-1368DR,4113,4381,11289,01.298,553
2023-11-10T04:57:05,42.805,6.029,CST-1368DR,4113,4381,11288,01.298,553
2023-11-10T05:00:06,42.805,6.029,CST-1368DR,4113,4380,11286,01.299,553
2023-11-10T05:03:08,42.805,6.029,CST-1368DR,4113,4380,11286,01.299,553
2023-11-10T05:06:09,42.805,6.029,CST-1368DR,4113,4379,11283,01.300,553
2023-11-10T05:09:11,42.805,6.029,CST-1368DR,4113,4381,11287,01.299,553
2023-11-10T05:12:12,42.805,6.029,CST-1368DR,4113,4380,11284,01.300,553
2023-11-10T05:15:14,42.805,6.029,CST-1368DR,4113,4381,11287,01.299,553
2023-11-10T05:18:16,42.805,6.029,CST-1368DR,4113,4380,11286,01.299,553
2023-11-10T05:21:17,42.805,6.029,CST-1368DR,4113,4381,11288,01.298,553
2023-11-10T05:24:19,42.805,6.029,CST-1368DR,4113,4380,11286,01.299,553
2023-11-10T05:27:20,42.805,6.029,CST-1368DR,4113,4375,11274,01.303,553
2023-11-10T05:30:25,42.805,6.029,CST-1368DR,4113,4379,11283,01.300,553
2023-11-10T05:33:26,42.805,6.029,CST-1368DR,4113,4381,11289,01.298,553
2023-11-10T05:36:28,42.805,6.029,CST-1368DR,4113,4381,11289,01.298,553
2023-11-10T05:39:29,42.805,6.029,CST-1368DR,4113,4380,11286,01.299,553
2023-11-10T05:42:31,42.805,6.029,CST-1368DR,4113,4380,11285,01.299,553
2023-11-10T05:45:33,42.805,6.029,CST-1368DR,4113,4381,11288,01.298,553
2023-11-10T05:48:34,42.805,6.029,CST-1368DR,4113,4381,11287,01.299,553
2023-11-10T05:51:36,42.805,6.029,CST-1368DR,4113,4381,11288,01.298,552
2023-11-10T05:54:37,42.805,6.029,CST-1368DR,4113,4380,11286,01.299,553
2023-11-10T05:57:39,42.805,6.029,CST-1368DR,4113,4379,11283,01.300,553
2023-11-10T06:00:40,42.805,6.029,CST-1368DR,4113,4381,11287,01.299,553
2023-11-10T06:03:42,42.805,6.029,CST-1368DR,4113,4381,11289,01.298,553
2023-11-10T06:06:44,42.805,6.029,CST-1368DR,4113,4380,11285,01.299,552
2023-11-10T06:09:45,42.805,6.029,CST-1368DR,4113,4379,11282,01.300,552
2023-11-10T06:12:47,42.805,6.029,CST-1368DR,4113,4378,11279,01.301,553
2023-11-10T06:15:48,42.805,6.029,CST-1368DR,4113,4375,11272,01.304,553
2023-11-10T06:18:50,42.805,6.029,CST-1368DR,4113,4376,11274,01.303,553
2023-11-10T06:21:51,42.805,6.029,CST-1368DR,4113,4379,11282,01.300,553
2023-11-10T06:24:53,42.805,6.029,CST-1368DR,4113,4378,11280,01.301,553
2023-11-10T06:27:55,42.805,6.029,CST-1368DR,4113,4378,11281,01.301,553
2023-11-10T06:30:56,42.805,6.029,CST-1368DR,4113,4379,11283,01.300,553
2023-11-10T06:33:58,42.805,6.029,CST-1368DR,4113,4372,11264,01.307,552
2023-11-10T06:36:59,42.805,6.029,CST-1368DR,4113,4376,11274,01.303,553
2023-11-10T06:40:01,42.805,6.029,CST-1368DR,4113,4376,11275,01.303,553
2023-11-10T06:43:03,42.805,6.029,CST-1368DR,4113,4374,11271,01.304,553
2023-11-10T06:46:04,42.805,6.029,CST-1368DR,4113,4373,11266,01.306,553
2023-11-10T06:49:06,42.805,6.029,CST-1368DR,4113,4375,11274,01.303,553
2023-11-10T06:52:07,42.805,6.029,CST-1368DR,4113,4379,11282,01.300,553
2023-11-10T06:55:09,42.805,6.029,CST-1368DR,4113,4375,11274,01.303,553
2023-11-10T06:58:10,42.805,6.029,CST-1368DR,4113,4375,11272,01.304,553
2023-11-10T07:01:12,42.805,6.029,CST-1368DR,4113,4379,11282,01.300,553
2023-11-10T07:04:14,42.805,6.029,CST-1368DR,4113,4379,11284,01.300,552
2023-11-10T07:07:15,42.805,6.029,CST-1368DR,4113,4376,11276,01.302,553
2023-11-10T07:10:17,42.805,6.029,CST-1368DR,4113,4374,11271,01.304,553
2023-11-10T07:13:18,42.805,6.029,CST-1368DR,4113,4374,11270,01.305,553
2023-11-10T07:16:20,42.805,6.029,CST-1368DR,4113,4376,11275,01.303,553
2023-11-10T07:19:21,42.805,6.029,CST-1368DR,4113,4376,11275,01.303,553
2023-11-10T07:22:23,42.805,6.029,CST-1368DR,4113,4377,11277,01.302,553
2023-11-10T07:25:25,42.805,6.029,CST-1368DR,4113,4375,11272,01.304,553
2023-11-10T07:28:26,42.805,6.029,CST-1368DR,4113,4377,11277,01.302,553
2023-11-10T07:31:28,42.805,6.029,CST-1368DR,4113,4376,11274,01.303,553
2023-11-10T07:34:29,42.805,6.029,CST-1368DR,4113,4375,11272,01.304,553
2023-11-10T07:37:31,42.805,6.029,CST-1368DR,4113,4376,11276,01.302,553
2023-11-10T07:40:32,42.805,6.029,CST-1368DR,4113,4375,11274,01.303,553
2023-11-10T07:43:34,42.805,6.029,CST-1368DR,4113,4376,11274,01.303,553
2023-11-10T07:46:36,42.805,6.029,CST-1368DR,4113,4376,11275,01.303,553
2023-11-10T07:49:37,42.805,6.029,CST-1368DR,4113,4379,11283,01.300,553
2023-11-10T07:52:39,42.805,6.029,CST-1368DR,4113,4376,11275,01.303,553
2023-11-10T07:55:40,42.805,6.029,CST-1368DR,4113,4374,11271,01.304,553
2023-11-10T07:58:42,42.805,6.029,CST-1368DR,4113,4375,11274,01.303,553
2023-11-10T08:01:43,42.805,6.029,CST-1368DR,4113,4376,11274,01.303,553
2023-11-10T08:04:45,42.805,6.029,CST-1368DR,4113,4376,11275,01.303,553
2023-11-10T08:07:47,42.805,6.029,CST-1368DR,4113,4376,11275,01.303,553
2023-11-10T08:10:48,42.805,6.029,CST-1368DR,4113,4377,11278,01.302,553
2023-11-10T08:13:50,42.805,6.029,CST-1368DR,4113,4378,11280,01.301,553
2023-11-10T08:16:51,42.805,6.029,CST-1368DR,4113,4375,11272,01.304,553
2023-11-10T08:19:53,42.805,6.029,CST-1368DR,4113,4375,11274,01.303,553
2023-11-10T08:22:55,42.805,6.029,CST-1368DR,4113,4377,11277,01.302,553
2023-11-10T08:25:56,42.805,6.029,CST-1368DR,4113,4376,11275,01.303,553
2023-11-10T08:28:58,42.805,6.029,CST-1368DR,4113,4376,11275,01.303,553
2023-11-10T08:31:59,42.805,6.029,CST-1368DR,4113,4376,11275,01.303,553
2023-11-10T08:35:01,42.805,6.029,CST-1368DR,4113,4376,11276,01.302,553
2023-11-10T08:38:02,42.805,6.029,CST-1368DR,4113,4378,11279,01.301,553
2023-11-10T08:41:04,42.805,6.029,CST-1368DR,4113,4376,11275,01.303,553
2023-11-10T08:44:06,42.805,6.029,CST-1368DR,4113,4378,11279,01.301,553
2023-11-10T08:47:07,42.805,6.029,CST-1368DR,4113,4372,11264,01.307,553
2023-11-10T08:50:09,42.805,6.029,CST-1368DR,4113,4377,11278,01.302,553
2023-11-10T08:53:10,42.805,6.029,CST-1368DR,4113,4375,11273,01.304,553
2023-11-10T08:56:12,42.805,6.029,CST-1368DR,4113,4373,11267,01.306,552
2023-11-10T08:59:14,42.805,6.029,CST-1368DR,4113,4379,11284,01.300,553
2023-11-10T09:02:15,42.805,6.029,CST-1368DR,4113,4376,11274,01.303,553
2023-11-10T09:05:17,42.805,6.029,CST-1368DR,4113,4376,11274,01.303,553
2023-11-10T09:08:18,42.805,6.029,CST-1368DR,4113,4378,11281,01.301,553
2023-11-10T09:11:20,42.805,6.029,CST-1368DR,4113,4382,11291,01.297,553
2023-11-10T09:14:21,42.805,6.029,CST-1368DR,4113,4383,11293,01.296,553
2023-11-10T09:17:23,42.805,6.029,CST-1368DR,4113,4381,11288,01.298,552
2023-11-10T09:20:25,42.805,6.029,CST-1368DR,4113,4382,11292,01.297,553
2023-11-10T09:23:26,42.805,6.029,CST-1368DR,4113,4382,11291,01.297,553
2023-11-10T09:26:28,42.805,6.029,CST-1368DR,4113,4383,11294,01.296,553
2023-11-10T09:29:29,42.805,6.029,CST-1368DR,4113,4381,11288,01.298,553
2023-11-10T09:32:31,42.805,6.029,CST-1368DR,4113,4382,11291,01.297,553
2023-11-10T09:35:33,42.805,6.029,CST-1368DR,4113,4382,11292,01.297,553
2023-11-10T09:38:34,42.805,6.029,CST-1368DR,4113,4381,11289,01.298,553
2023-11-10T09:41:36,42.805,6.029,CST-1368DR,4113,4383,11292,01.297,553
2023-11-10T09:44:37,42.805,6.029,CST-1368DR,4113,4383,11294,01.296,553
2023-11-10T09:47:39,42.805,6.029,CST-1368DR,4113,4382,11291,01.297,553
2023-11-10T09:50:40,42.805,6.029,CST-1368DR,4113,4382,11292,01.297,553
2023-11-10T09:53:42,42.805,6.029,CST-1368DR,4113,4381,11288,01.298,553
2023-11-10T09:56:44,42.805,6.029,CST-1368DR,4113,4374,11270,01.305,553
2023-11-10T09:59:45,42.805,6.029,CST-1368DR,4113,4383,11293,01.296,553
2023-11-10T10:02:47,42.805,6.029,CST-1368DR,4113,4382,11292,01.297,553
2023-11-10T10:05:48,42.805,6.029,CST-1368DR,4113,4383,11294,01.296,552
2023-11-10T10:08:50,42.805,6.029,CST-1368DR,4113,4382,11292,01.297,553
2023-11-10T10:11:51,42.805,6.029,CST-1368DR,4113,4382,11290,01.298,553
2023-11-10T10:14:53,42.805,6.029,CST-1368DR,4113,4382,11290,01.298,553
2023-11-10T10:17:55,42.805,6.029,CST-1368DR,4113,4382,11291,01.297,553
2023-11-10T10:20:56,42.805,6.029,CST-1368DR,4113,4383,11293,01.296,553
2023-11-10T10:23:58,42.805,6.029,CST-1368DR,4113,4381,11289,01.298,553
2023-11-10T10:26:59,42.805,6.029,CST-1368DR,4113,4382,11292,01.297,553
2023-11-10T10:30:01,42.805,6.029,CST-1368DR,4113,4382,11291,01.297,553
2023-11-10T10:33:03,42.805,6.029,CST-1368DR,4113,4383,11294,01.296,553
2023-11-10T10:36:04,42.805,6.029,CST-1368DR,4113,4382,11290,01.298,553
2023-11-10T10:39:06,42.805,6.029,CST-1368DR,4113,4383,11292,01.297,553
2023-11-10T10:42:07,42.805,6.029,CST-1368DR,4113,4382,11291,01.297,553
2023-11-10T10:45:09,42.805,6.029,CST-1368DR,4113,4382,11290,01.298,553
2023-11-10T10:48:10,42.805,6.029,CST-1368DR,4113,4382,11291,01.297,552
2023-11-10T10:51:12,42.805,6.029,CST-1368DR,4113,4383,11292,01.297,553
2023-11-10T10:54:14,42.805,6.029,CST-1368DR,4113,4383,11294,01.296,553
2023-11-10T10:57:15,42.805,6.029,CST-1368DR,4113,4382,11291,01.297,553
2023-11-10T11:00:17,42.805,6.029,CST-1368DR,4113,4383,11293,01.296,553
2023-11-10T11:03:18,42.805,6.029,CST-1368DR,4113,4381,11288,01.298,553
2023-11-10T11:06:20,42.805,6.029,CST-1368DR,4113,4382,11292,01.297,553
2023-11-10T11:09:22,42.805,6.029,CST-1368DR,4113,4384,11295,01.296,553
2023-11-10T11:12:23,42.805,6.029,CST-1368DR,4113,4383,11294,01.296,553
2023-11-10T11:15:25,42.805,6.029,CST-1368DR,4113,4383,11293,01.296,552
2023-11-10T11:18:26,42.805,6.029,CST-1368DR,4113,4382,11291,01.297,553
2023-11-10T11:21:28,42.805,6.029,CST-1368DR,4113,4382,11292,01.297,553
2023-11-10T11:24:29,42.805,6.029,CST-1368DR,4113,4382,11292,01.297,553
2023-11-10T11:27:31,42.805,6.029,CST-1368DR,4113,4383,11292,01.297,553
2023-11-10T11:30:33,42.805,6.029,CST-1368DR,4113,4382,11290,01.298,553
2023-11-10T11:33:34,42.805,6.029,CST-1368DR,4113,4378,11281,01.301,553
2023-11-10T11:36:36,42.805,6.029,CST-1368DR,4113,4383,11292,01.297,553
2023-11-10T11:39:37,42.805,6.029,CST-1368DR,4113,4382,11290,01.298,553
2023-11-10T11:42:39,42.805,6.029,CST-1368DR,4113,4379,11282,01.300,553
2023-11-10T11:45:40,42.805,6.029,CST-1368DR,4113,4383,11292,01.297,553
2023-11-10T11:48:42,42.805,6.029,CST-1368DR,4113,4383,11292,01.297,553
2023-11-10T11:51:44,42.805,6.029,CST-1368DR,4113,4381,11287,01.299,553
2023-11-10T11:54:45,42.805,6.029,CST-1368DR,4113,4383,11294,01.296,553
2023-11-10T11:57:47,42.805,6.029,CST-1368DR,4113,4380,11284,01.300,553
2023-11-10T12:00:48,42.805,6.029,CST-1368DR,4113,4381,11288,01.298,553
2023-11-10T12:03:50,42.805,6.029,CST-1368DR,4113,4383,11292,01.297,553
2023-11-10T12:06:51,42.805,6.029,CST-1368DR,4113,4383,11294,01.296,553
2023-11-10T12:09:53,42.805,6.029,CST-1368DR,4113,4383,11294,01.296,553
2023-11-10T12:12:55,42.805,6.029,CST-1368DR,4113,4384,11296,01.295,553
2023-11-10T12:15:56,42.805,6.029,CST-1368DR,4113,4384,11297,01.295,553
2023-11-10T12:18:58,42.805,6.029,CST-1368DR,4113,4381,11289,01.298,553
2023-11-10T12:21:59,42.805,6.029,CST-1368DR,4113,4383,11294,01.296,553
2023-11-10T12:25:01,42.805,6.029,CST-1368DR,4113,4379,11283,01.300,553
2023-11-10T12:28:03,42.805,6.029,CST-1368DR,4113,4381,11288,01.298,553
2023-11-10T12:31:04,42.805,6.029,CST-1368DR,4113,4381,11287,01.299,553
2023-11-10T12:34:06,42.805,6.029,CST-1368DR,4113,4379,11282,01.300,553
2023-11-10T12:37:07,42.805,6.029,CST-1368DR,4113,4379,11283,01.300,553
2023-11-10T12:40:09,42.805,6.029,CST-1368DR,4113,4380,11284,01.300,553
2023-11-10T12:43:10,42.805,6.029,CST-1368DR,4113,4380,11284,01.300,553
2023-11-10T12:46:12,42.805,6.029,CST-1368DR,4113,4382,11292,01.297,553
2023-11-10T12:49:14,42.805,6.029,CST-1368DR,4113,4382,11290,01.298,553
2023-11-10T12:52:15,42.805,6.029,CST-1368DR,4113,4382,11290,01.298,553
2023-11-10T12:55:17,42.805,6.029,CST-1368DR,4113,4383,11294,01.296,553
2023-11-10T12:58:18,42.805,6.029,CST-1368DR,4113,4383,11294,01.296,553
2023-11-10T13:01:20,42.805,6.029,CST-1368DR,4113,4381,11289,01.298,553
2023-11-10T13:04:21,42.805,6.029,CST-1368DR,4113,4380,11285,01.299,553
2023-11-10T13:07:23,42.805,6.029,CST-1368DR,4113,4380,11285,01.299,553
2023-11-10T13:10:25,42.805,6.029,CST-1368DR,4113,4381,11287,01.299,553
2023-11-10T13:13:26,42.805,6.029,CST-1368DR,4113,4381,11289,01.298,553
2023-11-10T13:16:28,42.805,6.029,CST-1368DR,4113,4381,11288,01.298,553
2023-11-10T13:19:29,42.805,6.029,CST-1368DR,4113,4382,11290,01.298,553
2023-11-10T13:22:31,42.805,6.029,CST-1368DR,4113,4380,11286,01.299,553
2023-11-10T13:25:32,42.805,6.029,CST-1368DR,4113,4380,11286,01.299,553
2023-11-10T13:28:34,42.805,6.029,CST-1368DR,4113,4381,11288,01.298,553
2023-11-10T13:31:39,42.805,6.029,CST-1368DR,4113,4380,11284,01.300,553
2023-11-10T13:34:40,42.805,6.029,CST-1368DR,4113,4381,11287,01.299,553
2023-11-10T13:37:42,42.805,6.029,CST-1368DR,4113,4380,11286,01.299,553
2023-11-10T13:40:43,42.805,6.029,CST-1368DR,4113,4382,11290,01.298,553
2023-11-10T13:43:45,42.805,6.029,CST-1368DR,4113,4380,11286,01.299,553
2023-11-10T13:46:46,42.805,6.029,CST-1368DR,4113,4379,11283,01.300,553
2023-11-10T13:49:48,42.805,6.029,CST-1368DR,4113,4381,11289,01.298,553
2023-11-10T13:52:50,42.805,6.029,CST-1368DR,4113,4382,11291,01.297,553
2023-11-10T13:55:51,42.805,6.029,CST-1368DR,4113,4378,11280,01.301,553
2023-11-10T13:58:53,42.805,6.029,CST-1368DR,4113,4382,11292,01.297,553
2023-11-10T14:01:54,42.805,6.029,CST-1368DR,4113,4381,11288,01.298,553
2023-11-10T14:04:56,42.805,6.029,CST-1368DR,4113,4381,11288,01.298,553
2023-11-10T14:07:57,42.805,6.029,CST-1368DR,4113,4378,11280,01.301,553
2023-11-10T14:10:59,42.805,6.029,CST-1368DR,4113,4379,11283,01.300,553
2023-11-10T14:14:01,42.805,6.029,CST-1368DR,4113,4381,11288,01.298,553
2023-11-10T14:17:02,42.805,6.029,CST-1368DR,4113,4382,11290,01.298,553
2023-11-10T14:20:04,42.805,6.029,CST-1368DR,4113,4379,11282,01.300,552
2023-11-10T14:23:05,42.805,6.029,CST-1368DR,4113,4381,11287,01.299,553
2023-11-10T14:26:07,42.805,6.029,CST-1368DR,4113,4379,11283,01.300,553
2023-11-10T14:29:09,42.805,6.029,CST-1368DR,4113,4380,11284,01.300,553
2023-11-10T14:32:10,42.805,6.029,CST-1368DR,4113,4382,11290,01.298,552
2023-11-10T14:35:12,42.805,6.029,CST-1368DR,4113,4379,11283,01.300,553
2023-11-10T14:38:13,42.805,6.029,CST-1368DR,4113,4378,11279,01.301,553
2023-11-10T14:41:15,42.805,6.029,CST-1368DR,4113,4382,11290,01.298,553
2023-11-10T14:44:16,42.805,6.029,CST-1368DR,4113,4377,11278,01.302,553
2023-11-10T14:47:18,42.805,6.029,CST-1368DR,4113,4377,11277,01.302,553
2023-11-10T14:50:20,42.805,6.029,CST-1368DR,4113,4376,11274,01.303,553
2023-11-10T14:53:21,42.805,6.029,CST-1368DR,4113,4374,11270,01.305,553
2023-11-10T14:56:23,42.805,6.029,CST-1368DR,4113,4376,11275,01.303,553
2023-11-10T14:59:24,42.805,6.029,CST-1368DR,4113,4378,11279,01.301,553
2023-11-10T15:02:26,42.805,6.029,CST-1368DR,4113,4377,11277,01.302,553
2023-11-10T15:05:27,42.805,6.029,CST-1368DR,4113,4379,11284,01.300,553
2023-11-10T15:08:29,42.805,6.029,CST-1368DR,4113,4376,11276,01.302,553
2023-11-10T15:11:31,42.805,6.029,CST-1368DR,4113,4375,11272,01.304,553
2023-11-10T15:14:32,42.805,6.029,CST-1368DR,4113,4372,11266,01.306,553
2023-11-10T15:17:34,42.805,6.029,CST-1368DR,4113,4374,11270,01.305,553
2023-11-10T15:20:35,42.805,6.029,CST-1368DR,4113,4372,11265,01.306,553
2023-11-10T15:23:37,42.805,6.029,CST-1368DR,4113,4371,11261,01.308,553
2023-11-10T15:26:39,42.805,6.029,CST-1368DR,4113,4371,11263,01.307,553
2023-11-10T15:29:40,42.805,6.029,CST-1368DR,4113,4373,11266,01.306,553
2023-11-10T15:32:42,42.805,6.029,CST-1368DR,4113,4373,11268,01.305,553
2023-11-10T15:35:43,42.805,6.029,CST-1368DR,4113,4374,11270,01.305,553
2023-11-10T15:38:45,42.805,6.029,CST-1368DR,4113,4379,11282,01.300,553
2023-11-10T15:41:46,42.805,6.029,CST-1368DR,4112,4370,11263,01.307,553
2023-11-10T15:44:48,42.805,6.029,CST-1368DR,4112,4372,11267,01.306,553
2023-11-10T15:47:49,42.805,6.029,CST-1368DR,4112,4370,11263,01.307,553
2023-11-10T15:50:51,42.805,6.029,CST-1368DR,4113,4372,11265,01.306,553
2023-11-10T15:53:53,42.805,6.029,CST-1368DR,4113,4370,11259,01.309,553
2023-11-10T15:56:54,42.805,6.029,CST-1368DR,4113,4374,11271,01.304,553
2023-11-10T15:59:56,42.805,6.029,CST-1368DR,4113,4373,11266,01.306,553
2023-11-10T16:02:57,42.805,6.029,CST-1368DR,4112,4370,11262,01.307,553
2023-11-10T16:05:59,42.805,6.029,CST-1368DR,4113,4372,11265,01.306,553
2023-11-10T16:09:00,42.805,6.029,CST-1368DR,4113,4374,11269,01.305,553
2023-11-10T16:12:02,42.805,6.029,CST-1368DR,4112,4372,11267,01.306,553
2023-11-10T16:15:04,42.805,6.029,CST-1368DR,4112,4370,11262,01.307,553
2023-11-10T16:18:05,42.805,6.029,CST-1368DR,4112,4372,11267,01.306,553
2023-11-10T16:21:07,42.805,6.029,CST-1368DR,4113,4371,11262,01.307,553
2023-11-10T16:24:08,42.805,6.029,CST-1368DR,4113,4375,11273,01.304,553
2023-11-10T16:27:10,42.805,6.029,CST-1368DR,4113,4373,11268,01.305,553
2023-11-10T16:30:12,42.805,6.029,CST-1368DR,4113,4374,11269,01.305,552
2023-11-10T16:33:13,42.805,6.029,CST-1368DR,4112,4374,11273,01.304,553
2023-11-10T16:36:15,42.805,6.029,CST-1368DR,4112,4374,11272,01.304,553